Location: Westminster
(33.3626°N, 96.4619°W)
Time: 12:27:44
(UTC+00:00)

Cosmos 1763 Rocket - Pass Details

Date: 06 July 2022
Orbit: 732 x 780 km, 74.0° (Epoch: 07 August)

Event Time Altitude Azimuth Distance (km) Brightness Sun altitude
Exits shadow 06:41:40 34° 32° (NNE) 1,240 4.9 -33.9°
Drops below altitude 10° 06:44:40 10° 22° (NNE) 2,316 6.7 -33.9°
Sets 06:47:04 0° 20° (NNE) 3,252 7.7 -33.8°
